This is the latest recevied weather packets stored in our database for station/object K9RJT. If no packets are shown the sender has not sent any weather packets the latest 10 day(s).
| Time | Temp. | Humidity | Pressure | Rain* | Wind** | Luminosity | Snow |
|---|---|---|---|---|---|---|---|
| 1777912864 | 18.33° C | 43% | 1007.5 hPa | 0 mm | - | 483 W/m² | - |
| 1777912560 | 18.89° C | 42% | 1007.5 hPa | 0 mm | - | 471 W/m² | - |
| 1777912256 | 18.89° C | 42% | 1007.7 hPa | 0 mm | - | 465 W/m² | - |
| 1777911952 | 18.89° C | 43% | 1007.6 hPa | 0 mm | - | 454 W/m² | - |
| 1777911649 | 18.33° C | 43% | 1007.7 hPa | 0 mm | - | 442 W/m² | - |
| 1777911345 | 16.67° C | 47% | 1007.8 hPa | 0 mm | - | 431 W/m² | - |
| 1777911043 | 16.67° C | 48% | 1007.6 hPa | 0 mm | - | 418 W/m² | - |
| 1777910740 | 15.56° C | 50% | 1007.7 hPa | 0 mm | - | 407 W/m² | - |
| 1777910437 | 15.56° C | 51% | 1007.9 hPa | 0 mm | - | 393 W/m² | - |
| 1777910133 | 15° C | 52% | 1007.9 hPa | 0 mm | - | 382 W/m² | - |
| 1777909831 | 15° C | 51% | 1007.9 hPa | 0 mm | - | 370 W/m² | - |
| 1777909527 | 13.89° C | 55% | 1007.9 hPa | 0 mm | - | 357 W/m² | - |
| 1777909225 | 13.33° C | 56% | 1008.2 hPa | 0 mm | - | 345 W/m² | - |
| 1777908923 | 12.78° C | 57% | 1008 hPa | 0 mm | - | 331 W/m² | - |
| 1777908621 | 13.33° C | 57% | 1008 hPa | 0 mm | - | 318 W/m² | - |
| 1777908317 | 12.78° C | 58% | 1008 hPa | 0 mm | - | 306 W/m² | - |
| 1777908014 | 12.78° C | 58% | 1008 hPa | 0 mm | - | 292 W/m² | - |
| 1777907709 | 12.22° C | 57% | 1008 hPa | 0 mm | - | 279 W/m² | - |
| 1777907404 | 11.67° C | 59% | 1008.1 hPa | 0 mm | - | 266 W/m² | - |
| 1777907101 | 11.67° C | 60% | 1008.1 hPa | 0 mm | - | 253 W/m² | - |
| 1777906799 | 11.67° C | 62% | 1008 hPa | 0 mm | - | 241 W/m² | - |
| 1777906496 | 11.67° C | 61% | 1008.4 hPa | 0 mm | - | 228 W/m² | - |
| 1777906192 | 11.67° C | 61% | 1008.2 hPa | 0 mm | - | 215 W/m² | - |
| 1777905889 | 11.11° C | 63% | 1008.1 hPa | 0 mm | - | 201 W/m² | - |
| 1777905585 | 10.56° C | 63% | 1008.2 hPa | 0 mm | - | 188 W/m² | - |
* Rain latest hour (hover to see other rain measurements)
** Current wind speed in m/s (hover to see current wind gust speed)